• In Latvia
  • List of Countries
  • For 7 days
  • Water Temperature
  • Satellite Maps
  • Weather Map
  • Weather Widgets
  • user-avatar
    Login

    Hourly Weather Shofirkon

    Today, 21 September, Friday

    Time Temperature Precipitation Wind Pressure Humidity
    00:00 +21°C° 0 mm 3 mps 742 mmHg 34%
    01:00 +20°C° 0 mm 3 mps 742 mmHg 36%
    02:00 +20°C° 0 mm 2 mps 742 mmHg 38%
    03:00 +19°C° 0 mm 2 mps 742 mmHg 39%
    04:00 +19°C° 0 mm 2 mps 742 mmHg 41%
    05:00 +19°C° 0 mm 2 mps 742 mmHg 39%
    06:00 +20°C° 0 mm 2 mps 743 mmHg 37%
    07:00 +20°C° 0 mm 2 mps 743 mmHg 36%
    08:00 +23°C° 0 mm 2 mps 743 mmHg 32%
    09:00 +24°C° 0 mm 3 mps 743 mmHg 29%
    10:00 +26°C° 0 mm 4 mps 744 mmHg 25%
    11:00 +26°C° 0 mm 4 mps 743 mmHg 24%
    12:00 +27°C° 0 mm 4 mps 743 mmHg 23%
    13:00 +28°C° 0 mm 4 mps 743 mmHg 21%
    14:00 +28°C° 0 mm 4 mps 743 mmHg 21%
    15:00 +28°C° 0 mm 4 mps 742 mmHg 20%
    16:00 +28°C° 0 mm 4 mps 742 mmHg 20%
    17:00 +27°C° 0 mm 3 mps 742 mmHg 21%
    18:00 +26°C° 0 mm 3 mps 743 mmHg 22%
    19:00 +24°C° 0 mm 2 mps 743 mmHg 23%
    20:00 +24°C° 0 mm 3 mps 743 mmHg 24%
    21:00 +22°C° 0 mm 3 mps 743 mmHg 24%
    22:00 +22°C° 0 mm 3 mps 743 mmHg 25%
    23:00 +21°C° 0 mm 3 mps 743 mmHg 26%

    Tomorrow, 22 September, Saturday

    Time Temperature Precipitation Wind Pressure Humidity
    00:00 +21°C° 0 mm 3 mps 742 mmHg 27%
    01:00 +20°C° 0 mm 3 mps 742 mmHg 27%
    02:00 +20°C° 0 mm 3 mps 742 mmHg 28%
    03:00 +19°C° 0 mm 3 mps 742 mmHg 29%
    04:00 +19°C° 0 mm 3 mps 742 mmHg 29%
    05:00 +19°C° 0 mm 3 mps 743 mmHg 28%
    06:00 +20°C° 0 mm 3 mps 743 mmHg 27%
    07:00 +21°C° 0 mm 2 mps 743 mmHg 26%
    08:00 +22°C° 0 mm 3 mps 743 mmHg 24%
    09:00 +25°C° 0 mm 3 mps 743 mmHg 22%
    10:00 +26°C° 0 mm 3 mps 743 mmHg 20%
    11:00 +27°C° 0 mm 3 mps 743 mmHg 19%
    12:00 +28°C° 0 mm 3 mps 743 mmHg 18%
    13:00 +29°C° 0 mm 4 mps 742 mmHg 17%
    14:00 +29°C° 0 mm 4 mps 742 mmHg 17%
    15:00 +29°C° 0 mm 4 mps 742 mmHg 17%
    16:00 +29°C° 0 mm 4 mps 742 mmHg 17%
    17:00 +28°C° 0 mm 4 mps 742 mmHg 19%
    18:00 +27°C° 0 mm 3 mps 742 mmHg 21%
    19:00 +25°C° 0 mm 3 mps 742 mmHg 23%
    20:00 +25°C° 0 mm 3 mps 742 mmHg 24%
    21:00 +24°C° 0 mm 3 mps 742 mmHg 26%
    22:00 +24°C° 0 mm 2 mps 742 mmHg 27%
    23:00 +23°C° 0 mm 2 mps 742 mmHg 28%

    Day after tomorrow, 23 September, Sunday

    Time Temperature Precipitation Wind Pressure Humidity
    00:00 +23°C° 0 mm 2 mps 742 mmHg 29%
    01:00 +21°C° 0 mm 2 mps 742 mmHg 30%
    02:00 +21°C° 0 mm 2 mps 742 mmHg 31%
    03:00 +21°C° 0 mm 2 mps 742 mmHg 32%
    04:00 +20°C° 0 mm 2 mps 742 mmHg 32%
    05:00 +21°C° 0 mm 2 mps 742 mmHg 31%
    06:00 +23°C° 0 mm 2 mps 742 mmHg 30%
    07:00 +24°C° 0 mm 2 mps 743 mmHg 28%
    08:00 +25°C° 0 mm 2 mps 743 mmHg 26%
    09:00 +27°C° 0 mm 2 mps 743 mmHg 23%
    10:00 +28°C° 0 mm 2 mps 743 mmHg 21%
    11:00 +29°C° 0 mm 2 mps 742 mmHg 20%
    12:00 +29°C° 0 mm 3 mps 742 mmHg 18%
    13:00 +30°C° 0 mm 3 mps 742 mmHg 17%
    14:00 +30°C° 0 mm 3 mps 741 mmHg 17%
    15:00 +30°C° 0 mm 3 mps 741 mmHg 16%
    16:00 +30°C° 0 mm 3 mps 741 mmHg 16%
    17:00 +29°C° 0 mm 3 mps 741 mmHg 18%
    18:00 +28°C° 0 mm 3 mps 741 mmHg 19%
    19:00 +27°C° 0 mm 3 mps 741 mmHg 21%
    20:00 +26°C° 0 mm 3 mps 741 mmHg 22%
    21:00 +25°C° 0 mm 3 mps 741 mmHg 23%
    22:00 +25°C° 0 mm 3 mps 741 mmHg 24%
    23:00 +24°C° 0 mm 3 mps 741 mmHg 26%

    24 September, Monday

    Time Temperature Precipitation Wind Pressure Humidity
    00:00 +22°C° 0 mm 4 mps 741 mmHg 27%
    01:00 +22°C° 0 mm 4 mps 741 mmHg 29%
    02:00 +21°C° 0 mm 4 mps 740 mmHg 30%
    03:00 +21°C° 0 mm 4 mps 740 mmHg 32%
    04:00 +20°C° 0 mm 4 mps 740 mmHg 33%
    05:00 +21°C° 0 mm 4 mps 740 mmHg 32%
    06:00 +21°C° 0 mm 4 mps 740 mmHg 30%
    07:00 +22°C° 0 mm 4 mps 741 mmHg 29%
    08:00 +25°C° 0 mm 4 mps 741 mmHg 26%
    09:00 +27°C° 0 mm 3 mps 741 mmHg 22%
    10:00 +29°C° 0 mm 3 mps 741 mmHg 19%
    11:00 +30°C° 0 mm 3 mps 740 mmHg 17%
    12:00 +30°C° 0 mm 3 mps 740 mmHg 16%
    13:00 +31°C° 0 mm 3 mps 740 mmHg 14%
    14:00 +31°C° 0 mm 3 mps 739 mmHg 14%
    15:00 +33°C° 0 mm 3 mps 739 mmHg 13%
    16:00 +33°C° 0 mm 4 mps 739 mmHg 13%
    17:00 +30°C° 0 mm 4 mps 739 mmHg 14%
    18:00 +29°C° 0 mm 4 mps 739 mmHg 16%
    19:00 +27°C° 0 mm 4 mps 739 mmHg 17%
    20:00 +27°C° 0 mm 5 mps 740 mmHg 19%
    21:00 +26°C° 0 mm 5 mps 740 mmHg 20%
    22:00 +25°C° 0 mm 5 mps 740 mmHg 22%
    23:00 +23°C° 0 mm 5 mps 740 mmHg 23%

    25 September, Tuesday

    Time Temperature Precipitation Wind Pressure Humidity
    00:00 +23°C° 0 mm 5 mps 740 mmHg 25%
    01:00 +22°C° 0 mm 4 mps 740 mmHg 26%
    02:00 +21°C° 0 mm 4 mps 740 mmHg 27%
    03:00 +21°C° 0 mm 4 mps 740 mmHg 28%
    04:00 +20°C° 0 mm 4 mps 740 mmHg 29%
    05:00 +21°C° 0 mm 4 mps 740 mmHg 28%
    06:00 +22°C° 0 mm 4 mps 740 mmHg 27%
    07:00 +22°C° 0 mm 3 mps 741 mmHg 26%
    08:00 +25°C° 0 mm 3 mps 741 mmHg 23%
    09:00 +27°C° 0 mm 3 mps 741 mmHg 20%
    10:00 +29°C° 0 mm 3 mps 741 mmHg 17%
    11:00 +30°C° 0 mm 3 mps 741 mmHg 16%
    12:00 +31°C° 0 mm 3 mps 740 mmHg 15%
    13:00 +33°C° 0 mm 3 mps 740 mmHg 14%
    14:00 +33°C° 0 mm 3 mps 740 mmHg 13%
    15:00 +33°C° 0 mm 4 mps 740 mmHg 13%
    16:00 +33°C° 0 mm 4 mps 740 mmHg 13%
    17:00 +30°C° 0 mm 4 mps 740 mmHg 14%
    18:00 +29°C° 0 mm 4 mps 740 mmHg 16%
    19:00 +27°C° 0 mm 4 mps 740 mmHg 17%
    20:00 +27°C° 0 mm 4 mps 740 mmHg 18%
    21:00 +26°C° 0 mm 4 mps 740 mmHg 18%
    22:00 +25°C° 0 mm 4 mps 740 mmHg 19%
    23:00 +25°C° 0 mm 4 mps 740 mmHg 19%

    26 September, Wednesday

    Time Temperature Precipitation Wind Pressure Humidity
    00:00 +23°C° 0 mm 4 mps 740 mmHg 20%
    01:00 +22°C° 0 mm 3 mps 740 mmHg 20%
    02:00 +22°C° 0 mm 3 mps 740 mmHg 21%
    03:00 +22°C° 0 mm 3 mps 740 mmHg 21%
    04:00 +21°C° 0 mm 3 mps 740 mmHg 22%
    05:00 +22°C° 0 mm 3 mps 740 mmHg 21%
    06:00 +22°C° 0 mm 3 mps 740 mmHg 20%
    07:00 +24°C° 0 mm 3 mps 741 mmHg 20%
    08:00 +26°C° 0 mm 3 mps 741 mmHg 18%
    09:00 +28°C° 0 mm 4 mps 741 mmHg 16%
    10:00 +30°C° 0 mm 4 mps 741 mmHg 14%
    11:00 +30°C° 0 mm 4 mps 740 mmHg 13%
    12:00 +32°C° 0 mm 4 mps 740 mmHg 12%
    13:00 +33°C° 0 mm 4 mps 740 mmHg 12%
    14:00 +33°C° 0 mm 4 mps 740 mmHg 11%
    15:00 +33°C° 0 mm 4 mps 740 mmHg 11%
    16:00 +33°C° 0 mm 5 mps 739 mmHg 11%
    17:00 +32°C° 0 mm 5 mps 740 mmHg 12%
    18:00 +29°C° 0 mm 5 mps 740 mmHg 13%
    19:00 +28°C° 0 mm 5 mps 740 mmHg 15%
    20:00 +27°C° 0 mm 5 mps 740 mmHg 16%
    21:00 +27°C° 0 mm 5 mps 740 mmHg 17%
    22:00 +26°C° 0 mm 5 mps 740 mmHg 18%
    23:00 +25°C° 0 mm 4 mps 740 mmHg 19%
    Show more